Home   Weather   Eidsvoll   Past weeks

Flag for Norway Past Weather in Eidsvoll, Norway — Yesterday and Last 2 Weeks

Now
28 °F

Clear.


Feels Like: 23 °F
Forecast: 24 / 33 °F
Wind: 5 mph from Northeast

Location: Oslo Gardermoen Airport

Current Time: Apr 28, 2017 at 2:54:35 am

Latest Report: Apr 28, 2017 at 1:50 am


Visibility: 10 mi

Pressure: 29.89 "Hg

Humidity: 74%

Dew Point: 21 °F

Location of EidsvollLocation

Past Weather in Eidsvoll — Graph

°F

Eidsvoll Temperature Yesterday

Maximum temperature yesterday: 43 °F (at 3:50 pm)
Minimum temperature yesterday: 23 °F (at 4:50 am)
Average temperature yesterday: 34 °F

High & Low Weather Summary for the Past Weeks

 TemperatureHumidityPressure
High52 °F (Apr 20, 6:20 pm)100% (Apr 13, 9:20 pm)30.51 "Hg (Apr 13, 9:20 pm)
Low21 °F (Apr 15, 4:50 am)18% (Apr 22, 3:20 pm)29.24 "Hg (Apr 24, 4:50 pm)
Average36 °F62%29.83 "Hg
* Reported Apr 13 1:20 am — Apr 28 1:20 am, Eidsvoll, Weather by CustomWeather, © 2017

Note: Actual official high and low records may vary slightly from our data, if they occured in-between our weather recording intervals... More about our weather records

Advertising

Eidsvoll Weather History for the Previous 24 Hours

Scroll right to see more
 ConditionsComfort  
Time TempWeatherWind HumidityBarometerVisibility
1:20 am
Fri, Apr 28
28 °FClear.3 mph80%29.89 "Hg10 mi
12:50 am28 °FClear.3 mph74%29.89 "Hg10 mi
12:20 am30 °FClear.5 mph69%29.86 "Hg10 mi
11:50 pm
Thu, Apr 27
32 °FClear.3 mph75%29.86 "Hg10 mi
11:20 pm34 °FClear.2 mph81%29.86 "Hg10 mi
10:50 pm36 °FPassing clouds.3 mph75%29.86 "HgN/A
10:20 pm37 °FClear.3 mph56%29.83 "Hg10 mi
9:50 pm37 °FScattered showers. Passing clouds.7 mph65%29.83 "HgN/A
9:20 pm39 °FScattered showers. Passing clouds.8 mph56%29.83 "HgN/A
8:50 pm39 °FScattered showers. Passing clouds.6 mph61%29.80 "HgN/A
8:20 pm41 °FScattered showers. Scattered clouds.7 mph42%29.80 "HgN/A
7:50 pm43 °FScattered showers. Scattered clouds.5 mph34%29.80 "HgN/A
7:20 pm43 °FScattered showers. Scattered clouds.5 mph31%29.77 "HgN/A
6:50 pm43 °FPassing clouds.5 mph34%29.77 "HgN/A
6:20 pm43 °FScattered clouds.7 mph34%29.77 "HgN/A
5:50 pm43 °FPassing clouds.7 mph36%29.77 "HgN/A
5:20 pm41 °FScattered clouds.7 mph45%29.77 "HgN/A
4:50 pm41 °FScattered clouds.12 mph49%29.77 "HgN/A
4:20 pm43 °FScattered clouds.7 mph46%29.77 "HgN/A
3:50 pm43 °FScattered showers. Scattered clouds.7 mph46%29.77 "HgN/A
3:20 pm41 °FScattered clouds.8 mph49%29.77 "HgN/A
2:50 pm39 °FPassing clouds.7 mph56%29.77 "HgN/A
2:20 pm39 °FBroken clouds.7 mph56%29.77 "HgN/A
1:50 pm37 °FBroken clouds.7 mph65%29.77 "HgN/A
1:20 pm36 °FScattered showers. Broken clouds.12 mph70%29.77 "HgN/A
12:50 pm36 °FLight rain. Broken clouds.10 mph70%29.77 "HgN/A
12:20 pm36 °FScattered showers. Partly sunny.14 mph65%29.77 "HgN/A
11:50 am36 °FScattered showers. Partly sunny.15 mph65%29.77 "HgN/A
11:20 am37 °FScattered showers. Partly sunny.12 mph56%29.74 "HgN/A
10:50 am36 °FPartly sunny.12 mph60%29.74 "HgN/A
10:20 am36 °FSunny.10 mph56%29.74 "Hg10 mi
9:50 am36 °FSunny.12 mph60%29.74 "Hg10 mi
9:20 am34 °FSunny.9 mph70%29.74 "Hg10 mi
8:50 am32 °FSunny.6 mph75%29.74 "Hg10 mi
8:20 am30 °FSunny.3 mph80%29.74 "Hg10 mi
7:50 am28 °FSunny.2 mph80%29.71 "Hg10 mi
7:20 am27 °FSunny.3 mph80%29.71 "Hg10 mi
6:50 am27 °FSunny.2 mph80%29.71 "Hg10 mi
6:20 am25 °FPassing clouds.3 mph80%29.71 "HgN/A
5:50 am23 °FSunny.3 mph93%29.71 "Hg10 mi
5:20 am23 °FClear.3 mph86%29.71 "Hg10 mi
4:50 am23 °FClear.3 mph80%29.71 "Hg10 mi
4:20 am27 °FClear.2 mph74%29.71 "Hg10 mi
3:20 am27 °FClear.No wind80%29.71 "Hg10 mi
2:50 am27 °FClear.2 mph80%29.71 "Hg10 mi
2:20 am28 °FClear.2 mph74%29.71 "Hg10 mi
Weather by CustomWeather, © 2017

See weather overviewHow to use our weather pages